Regional Weather Roundup
Issued by NWS

Home | Current Version | Previous Version | Graphics & Text | Print | Product List | Glossary On
Versions: 1 2 3 4 5 6 7 8 9 10 11 12 13 14 15 16 17 18 19 20 21 22 23 24 25 26 27 28
000
ASUS45 KCYS 262010
RWRWY

WYOMING REGIONAL WEATHER ROUNDUP
NATIONAL WEATHER SERVICE CHEYENNE WY
100 PM MST SUN FEB 26 2017

NOTE:  "FAIR" INDICATES FEW OR NO CLOUDS BELOW 12,000 FEET
WITH NO SIGNIFICANT WEATHER AND/OR OBSTRUCTIONS TO VISIBILITY.

WYZ001-262100-
YELLOWSTONE NATIONAL PARK

CITY           SKY/WX    TMP DP  RH WIND       PRES   REMARKS
LK YELLOWSTONE   N/A     15   5  64 W8        29.67F WCI   4
W YELLOWSTONE  NOT AVBL

$$
WYZ002>013-054>058-071-098>099-262100-
NORTHERN WYOMING

CITY           SKY/WX    TMP DP  RH WIND       PRES   REMARKS
JACKSON        CLOUDY    19  12  73 S15       29.74F WCI   5
CODY           FAIR      32   1  26 VRB7      29.70F WCI  26
GREYBULL       FAIR      30   9  41 S7        29.75F WCI  23
WORLAND        FAIR      29   8  41 S6        29.75F WCI  23
SHERIDAN       FAIR      34   9  35 SE14G21   29.71F WCI  25
BUFFALO        FAIR      28   8  43 S10       29.70F WCI  19
GILLETTE       FAIR      32   9  38 SW10      29.71F WCI  24
HULETT         CLOUDY    32  10  40 W12       29.73F WCI  23
NEWCASTLE      FAIR      23   9  54 SE6       29.80F WCI  16

$$
WYZ014>020-022>026-101>103-262100-
CENTRAL WYOMING

CITY           SKY/WX    TMP DP  RH WIND       PRES   REMARKS
BIG PINEY      FAIR       7  -1  70 E7        29.78F WCI  -5
PINEDALE       FAIR       9   0  66 SE5       29.79F WCI   0
DUBOIS         FAIR      21   1  42 NW18G29   29.64F WCI   6
LANDER         FAIR      21   2  43 S3        29.71F
RIVERTON       FAIR      22   4  46 S10       29.72F WCI  11
CASPER         FAIR      23   9  55 W22       29.76F WCI   8
DOUGLAS        FAIR      25  11  55 W22G30    29.76S WCI  10

$$
WYZ021-027>030-104>119-262100-
SOUTHERN WYOMING

CITY           SKY/WX    TMP DP  RH WIND       PRES   REMARKS
EVANSTON       FAIR      20   6  55 W16       29.78F WCI   6
FORT BRIDGER   FAIR      22   8  55 W15       29.81F WCI   9
ROCK SPRINGS   FAIR      21   7  54 W16       29.81F WCI   7
DIXON            N/A     26   7  44 SW16G28   29.87F WCI  13
RAWLINS        FAIR      20   6  55 SW26G38   29.79F WCI   2
SARATOGA       FAIR      27   0  31 SW13G18   29.79F WCI  16
LARAMIE        FAIR      23   4  44 SW25G31   29.70F WCI   7
CHEYENNE       FAIR      24  11  57 S13       29.76F WCI  12
TORRINGTON     FAIR      29  11  47 W14       29.81F WCI  18
PINE BLUFFS    FAIR      32  12  43 SW8G20    29.80F WCI  25

$$




USA.gov is the U.S. government's official web portal to all federal, state and local government web resources and services.